Wind_Speed
3 1 2 4 5 5 3 2 1 1 2 1 3 2 1 1 3 3 2 1 2 1 1 1 3 4 1 3 4 6 6 8 8 6 4 2 2 4 5 6 9 11 14 18 20 19 20 20 20 19 18 17 17 17 17 18 19 18 17 17 17 16 16 14 14 14 14 13 12 12 11 10 10 10 11 11 12 12 12 12 13 15 16 17 18 19 20 19 18 18 17 19 18 19 24 25 26
3 1 4 6 6 3 1 1 2 1 1 2 3 2 3 0 2 4 4 4 4 3 2 2 3 3 3 5 4 7 7 10 12 9 5 7 10 11 11 9 9 12 15 18 21 21 21 21 21 21 20 19 18 18 18 19 20 19 18 18 17 17 16 15 14 14 13 13 13 12 12 11 11 12 12 12 12 13 13 13 13 13 13 15 17 19 19 18 18 19 19 20 20 21 25 26 27
2 2 6 7 4 2 1 1 2 2 1 3 3 2 1 2 3 7 8 6 5 3 2 1 3 4 5 6 6 8 7 5 11 9 6 10 11 10 11 11 11 13 15 18 22 23 23 24 24 23 23 22 20 19 20 20 21 20 19 19 18 18 17 16 15 14 13 13 13 13 12 12 12 13 13 13 13 14 14 13 14 14 13 14 17 18 18 18 19 19 20 22 22 24 28 29 28
0 4 7 5 2 1 1 1 2 2 2 2 2 3 1 5 7 8 7 4 2 1 2 2 3 3 6 9 5 6 8 4 6 7 6 7 7 8 9 11 14 15 16 18 22 24 25 26 26 26 25 24 22 21 21 22 22 21 21 20 19 19 17 16 15 14 14 14 14 14 14 14 13 13 14 15 15 15 15 16 16 16 15 15 17 19 18 19 20 20 22 22 23 27 30 30 29
2 4 5 4 2 0 1 0 1 1 3 2 2 4 3 5 7 9 6 5 3 4 4 3 3 2 3 6 3 4 6 4 3 6 6 8 10 11 10 11 16 18 18 18 22 25 26 27 27 28 28 27 25 23 22 23 23 22 21 20 20 19 18 17 16 15 15 15 15 15 15 15 15 15 16 17 17 16 16 17 17 16 17 17 17 20 20 20 20 22 23 22 22 29 33 32 31
5 4 3 1 0 0 1 0 1 2 3 2 3 4 6 6 7 10 9 7 1 3 3 4 4 3 4 4 5 6 5 5 3 4 7 9 12 12 11 11 16 21 21 20 22 25 27 27 28 30 30 28 27 25 23 23 23 22 22 21 21 20 19 19 18 16 16 16 15 16 16 17 16 16 17 18 18 18 17 18 18 17 18 18 19 20 21 21 21 23 24 23 25 32 36 34 33
4 2 2 2 2 1 1 2 2 2 3 0 3 5 7 7 5 8 9 7 1 2 2 3 4 6 7 2 4 8 11 10 6 10 12 13 15 13 12 13 16 21 23 23 22 25 27 26 28 30 30 29 28 26 24 24 23 23 22 22 22 22 21 19 19 17 16 16 17 18 18 18 17 18 18 18 19 18 18 17 17 18 18 18 19 20 22 22 22 24 23 23 28 35 37 35 34
3 2 1 2 1 0 1 1 1 2 2 1 3 4 6 7 4 6 7 4 2 1 2 3 2 6 6 0 4 4 9 15 13 18 20 21 22 19 16 14 17 20 24 25 24 26 27 26 27 29 29 28 28 27 25 23 23 24 23 23 24 24 22 21 20 19 17 18 18 18 18 18 18 20 20 20 19 18 18 16 16 17 17 17 19 20 22 22 21 24 23 24 29 35 36 35 35
1 1 1 2 1 1 0 0 1 1 1 2 3 5 5 5 3 4 6 4 4 4 3 3 3 6 8 4 8 4 4 12 13 18 20 21 23 23 22 18 18 20 24 26 26 26 27 27 26 28 28 28 28 27 26 24 24 24 24 23 24 25 25 23 22 20 19 19 19 18 18 18 19 20 22 20 18 17 16 15 15 16 15 16 17 19 20 21 21 22 23 26 31 36 37 38 38
1 1 1 1 0 1 1 0 1 1 1 0 4 5 4 2 2 4 5 6 4 4 2 0 4 8 11 10 10 5 4 8 11 15 17 17 18 19 22 21 20 21 24 26 26 25 26 27 27 27 28 28 28 28 27 26 24 23 23 23 23 25 26 25 23 22 21 20 19 19 19 19 19 21 22 20 17 16 15 14 15 15 14 14 15 17 17 18 20 20 21 25 31 36 38 40 38
2 1 1 1 0 2 2 1 2 1 1 2 3 3 2 1 3 4 4 6 5 6 2 2 4 7 10 11 7 4 6 10 11 13 15 15 16 17 18 20 20 21 23 25 25 25 25 26 28 28 28 29 29 29 29 27 26 23 22 23 23 24 25 25 24 23 22 21 20 20 19 19 19 20 20 19 17 16 14 14 15 15 14 14 15 15 14 17 17 16 18 24 33 38 38 39 35
3 0 1 2 1 2 2 3 4 3 2 1 1 3 0 2 3 5 4 7 7 9 5 4 2 3 7 9 4 3 4 7 8 10 12 13 15 17 17 18 19 20 23 24 24 25 25 25 27 29 30 30 30 30 30 29 28 25 24 23 23 24 24 24 24 22 22 22 22 20 18 18 19 20 19 18 18 15 14 14 15 16 14 14 15 14 13 17 16 14 20 28 37 39 38 37 35
2 1 2 1 1 1 1 2 3 4 1 2 3 3 1 2 3 9 9 8 8 9 5 3 1 3 8 8 6 6 2 3 8 11 13 15 16 17 17 17 18 20 22 23 25 25 25 25 25 28 30 31 31 31 30 30 29 28 28 25 23 25 24 23 23 22 22 23 22 21 18 17 19 20 20 18 17 15 14 14 16 16 14 14 13 14 14 14 12 16 25 32 37 38 37 37 36
2 1 3 0 1 1 1 2 2 3 2 4 2 3 2 3 3 5 8 12 9 6 4 0 2 4 6 5 6 6 3 6 15 18 19 19 17 18 18 18 19 20 22 23 25 25 26 26 25 26 28 30 31 32 31 31 30 30 30 27 23 24 25 24 23 22 23 24 22 20 18 17 19 20 19 18 17 15 14 14 16 15 14 13 12 14 13 13 15 22 28 32 35 36 36 36 35
1 1 1 1 2 1 2 1 2 2 2 4 2 2 2 3 1 1 5 11 8 3 2 1 2 3 4 5 8 8 6 14 21 23 23 22 19 18 18 18 20 21 22 23 25 27 27 27 26 26 26 28 30 32 31 31 32 32 31 29 25 24 25 24 24 23 23 24 22 20 19 18 19 20 19 18 17 15 14 14 16 15 13 12 13 14 14 18 21 26 30 30 33 34 34 34 33
1 1 1 1 1 1 1 0 1 1 3 4 1 1 4 1 2 3 2 6 9 2 0 3 2 4 8 9 12 12 14 22 26 27 26 23 20 18 17 18 20 22 24 25 26 28 28 29 28 27 26 27 28 29 28 27 29 32 32 30 28 25 25 26 25 25 24 24 23 21 20 19 20 20 20 19 16 14 15 16 16 14 12 12 13 15 17 22 26 30 33 32 33 34 32 33 33
2 2 2 1 1 0 1 0 1 3 6 5 2 1 8 5 1 2 2 5 10 6 4 6 5 6 10 12 15 18 22 27 28 27 23 18 15 14 14 14 17 19 23 25 27 28 28 30 30 29 28 26 25 25 23 22 24 29 32 31 30 28 26 26 25 25 25 25 24 22 20 20 21 21 20 18 16 15 16 17 15 13 11 12 15 18 20 25 31 35 35 33 32 31 30 33 34
2 2 1 0 1 1 2 1 3 4 8 10 6 2 6 8 4 4 5 6 7 8 8 6 7 8 12 15 16 18 21 24 24 20 17 15 14 14 15 14 13 15 18 23 26 28 28 29 29 29 29 27 24 22 21 21 22 26 30 31 31 30 27 27 27 26 26 26 25 24 22 20 21 21 18 16 16 17 17 17 15 13 10 12 17 22 24 28 32 32 32 32 32 30 31 35 34
2 1 2 1 2 2 1 2 3 4 9 14 13 4 3 7 6 5 7 10 8 8 8 7 9 11 11 10 8 12 16 18 17 16 16 17 18 18 20 20 19 18 17 18 20 23 25 26 25 25 29 29 25 22 21 22 23 24 27 30 31 30 29 28 27 26 27 27 26 26 22 19 22 20 16 17 18 18 17 17 14 12 10 10 16 23 27 31 32 30 31 34 33 31 32 35 35
1 1 2 3 2 1 1 1 1 2 7 13 14 6 5 5 3 3 7 13 10 8 12 13 15 19 20 17 13 14 16 15 14 15 16 18 21 21 21 22 22 22 21 19 18 18 21 24 23 22 25 26 24 22 21 22 23 23 24 27 30 31 29 30 29 26 27 27 26 27 22 20 25 20 17 20 19 18 17 16 13 11 11 10 16 23 27 32 34 33 34 33 33 34 35 35 35
1 1 2 5 2 1 3 1 1 0 3 10 13 9 8 4 2 3 6 9 8 11 14 15 16 16 18 18 18 19 18 20 22 22 22 22 24 24 22 22 21 21 21 21 21 19 19 20 22 21 21 22 22 23 23 24 24 23 24 25 28 29 28 31 31 28 27 27 26 26 21 22 27 20 18 20 18 19 19 17 14 13 14 12 16 23 26 29 31 32 31 29 31 35 37 37 36
1 3 2 3 2 2 4 2 1 1 2 8 12 8 7 5 1 3 5 6 7 11 14 14 13 13 13 12 13 17 19 22 25 26 26 25 26 26 25 23 22 21 19 20 22 22 20 19 19 20 20 21 23 23 23 24 24 25 25 24 25 25 27 31 31 29 28 27 27 26 23 25 27 22 19 19 17 19 20 17 16 17 19 17 17 23 24 24 27 30 32 32 33 35 34 35 35
2 2 1 1 3 1 2 3 2 1 5 9 9 5 5 7 4 3 4 6 6 11 12 10 11 11 10 9 11 15 18 20 23 25 25 25 26 27 26 24 23 23 21 22 23 22 22 20 20 20 21 22 23 24 24 24 25 26 27 26 25 24 26 32 32 30 28 27 28 27 25 24 24 23 22 19 16 18 18 18 19 20 23 23 21 23 24 24 27 32 36 36 35 35 33 31 32
3 2 1 2 5 2 1 1 2 3 7 9 8 6 6 6 4 3 4 4 7 9 8 9 11 12 11 13 15 17 19 20 22 24 24 23 25 26 26 24 25 24 24 25 25 23 23 23 21 20 21 22 22 23 23 24 25 26 27 28 29 28 27 30 30 30 31 29 28 28 27 25 22 25 25 20 17 17 17 19 23 22 23 25 23 22 24 25 30 35 36 35 35 36 34 31 32
4 3 3 0 3 2 1 2 4 5 6 6 7 9 4 3 1 2 3 8 8 6 7 9 11 12 14 16 17 18 19 20 22 24 24 22 24 26 27 26 27 27 27 28 26 25 25 25 23 21 21 22 22 22 22 23 25 27 28 30 31 33 31 29 28 27 31 30 28 29 31 27 23 25 28 23 18 18 18 21 26 26 26 27 25 21 22 25 30 35 36 36 37 38 36 35 35
2 4 5 6 4 1 2 3 4 4 2 2 7 12 4 4 3 3 8 10 9 9 10 11 11 13 15 15 17 18 18 20 21 22 23 23 25 27 28 27 28 28 26 27 26 26 27 26 24 22 21 22 22 22 22 22 24 27 31 30 30 34 32 30 30 28 30 30 30 33 35 32 25 25 30 27 20 20 18 19 26 28 28 30 29 27 25 27 28 33 38 38 38 39 38 38 37
1 7 8 10 7 3 3 4 5 4 2 2 8 14 6 1 3 4 9 9 12 12 13 13 13 15 16 16 16 17 18 20 21 23 25 25 26 26 27 26 27 26 25 26 27 27 27 26 24 23 21 21 21 21 22 23 24 25 30 32 31 34 32 30 32 30 30 31 32 36 38 35 29 25 28 28 21 20 19 17 22 27 29 31 31 31 29 28 28 32 37 39 38 38 38 38 37
3 7 10 11 5 3 5 5 4 5 3 2 8 13 6 2 2 7 10 10 13 13 13 14 14 14 15 16 15 15 17 20 22 24 25 25 24 25 27 27 26 25 24 25 27 27 28 29 27 23 21 19 20 21 23 24 25 24 27 32 34 34 33 33 33 31 31 31 30 34 39 38 34 27 28 30 23 21 22 19 20 25 31 34 31 32 32 29 27 31 36 38 38 39 39 38 36
2 3 7 11 3 7 7 5 3 4 4 4 6 8 3 1 5 10 10 10 13 10 14 13 13 13 14 14 13 13 16 20 23 24 24 24 25 26 28 29 28 24 23 24 28 30 30 30 29 24 21 18 18 20 22 23 25 25 25 30 33 34 34 35 35 34 33 30 25 28 36 40 39 31 29 34 28 23 25 22 23 27 31 34 32 32 34 31 28 30 34 38 39 39 39 39 37
1 1 2 7 6 4 7 6 1 4 7 6 4 5 2 3 6 8 5 7 11 11 14 12 11 12 12 12 12 12 16 19 21 24 25 26 26 27 28 30 31 27 24 24 29 34 31 28 29 26 22 19 17 17 21 22 24 25 24 29 33 33 33 34 36 36 33 30 28 28 32 39 43 36 29 34 31 24 27 26 25 30 31 30 31 34 34 33 32 31 32 35 39 38 37 39 39
2 0 2 1 4 4 3 6 3 4 7 2 6 4 4 8 5 7 4 6 10 14 14 12 11 11 11 11 12 12 15 18 21 25 28 28 28 29 29 30 31 29 28 26 28 34 33 31 30 26 22 19 18 16 18 20 24 25 26 30 33 33 33 33 35 37 33 30 32 32 32 36 42 42 35 36 34 24 25 28 29 33 33 28 28 29 32 35 35 36 35 33 37 38 36 40 39
1 2 2 2 2 8 7 5 7 6 2 2 6 3 5 9 6 8 9 9 16 16 13 12 12 12 12 11 12 12 14 19 23 27 29 29 29 29 29 29 30 30 29 27 28 31 32 33 33 29 26 22 19 18 17 18 22 27 29 32 32 33 35 33 33 37 35 33 34 33 33 33 36 45 43 39 37 29 24 27 31 36 36 31 28 27 30 36 37 39 37 32 39 40 35 37 39
1 3 4 5 5 9 8 3 7 8 6 3 3 3 6 8 7 11 9 14 19 15 13 12 11 12 12 10 11 11 13 17 21 25 29 28 27 28 29 28 29 29 28 27 28 28 29 31 32 32 31 27 23 20 19 19 20 24 27 31 32 33 36 37 36 37 35 35 36 35 35 35 36 45 47 40 35 31 27 26 29 36 39 36 34 33 33 35 37 38 34 32 40 42 36 36 37
3 4 4 6 6 8 9 2 4 7 7 3 1 0 6 9 10 11 8 17 17 14 12 11 11 11 11 10 11 13 14 16 17 23 27 27 26 27 27 28 29 29 27 27 27 28 27 27 29 31 31 30 28 25 23 22 22 22 24 27 31 34 36 38 39 39 38 37 37 36 35 36 41 47 48 42 33 29 28 28 31 36 38 36 35 37 36 34 35 37 34 31 36 39 40 38 36
6 6 6 7 6 7 11 8 4 8 8 7 3 2 6 11 11 9 13 18 16 14 11 10 11 11 11 12 12 13 15 16 17 23 27 26 26 27 27 27 29 30 28 27 27 27 28 27 27 29 30 31 32 29 27 26 24 23 24 26 28 34 37 38 38 39 40 38 38 40 39 37 42 49 49 44 35 31 30 30 33 37 37 36 36 37 36 34 33 35 35 32 31 35 43 43 38
8 7 7 8 9 8 11 11 5 9 12 8 5 6 8 12 11 9 16 16 15 13 11 10 10 11 11 12 12 14 15 15 18 24 26 26 26 26 26 26 27 30 28 27 26 27 27 28 27 27 29 31 31 31 30 28 26 24 24 24 25 29 35 37 37 39 40 39 39 41 42 41 41 44 46 45 40 34 33 34 35 39 38 37 39 39 39 38 36 36 36 34 31 31 39 43 41
6 7 6 8 10 8 9 11 5 9 12 8 8 11 9 12 10 11 15 14 14 12 12 11 10 10 10 12 13 15 15 15 19 23 25 26 26 26 26 25 27 30 29 28 27 27 27 26 26 27 29 30 30 30 31 31 29 26 24 23 24 28 30 33 35 39 39 40 43 42 41 39 36 39 41 42 43 37 34 36 37 40 40 40 42 43 42 40 40 39 37 35 32 29 32 37 41
4 5 7 8 8 8 10 9 5 9 10 9 14 14 8 11 7 13 14 13 13 11 12 11 11 11 10 12 14 15 14 14 18 21 24 27 28 27 27 26 27 29 30 30 29 30 29 25 25 26 28 30 29 29 31 32 32 31 29 28 28 29 29 29 32 38 39 38 43 46 46 39 33 36 36 36 40 38 34 32 37 43 44 43 42 41 42 39 39 42 40 36 32 31 33 36 42
5 4 6 7 6 9 8 3 5 10 8 11 15 12 9 8 7 14 12 12 12 10 11 10 11 12 12 13 14 14 15 15 17 19 23 27 28 28 27 26 26 26 26 27 28 29 29 26 25 25 26 28 28 30 31 31 34 36 33 31 30 29 30 31 31 35 39 40 40 40 45 44 37 36 33 32 37 40 36 31 35 43 44 45 40 37 42 41 39 41 43 41 32 29 33 39 45
3 4 6 6 7 9 5 2 9 12 8 9 13 10 8 1 10 12 10 11 10 8 10 10 11 12 12 12 11 13 15 16 17 19 21 25 26 26 26 25 26 25 24 24 26 26 26 26 28 27 25 24 26 29 31 32 36 39 37 32 30 28 29 32 33 34 35 38 39 37 40 42 40 38 33 32 37 39 39 35 35 38 40 43 41 38 41 42 42 41 42 43 37 29 27 34 40
2 1 3 6 7 8 8 10 15 13 6 4 10 11 3 4 4 6 8 8 8 7 9 12 12 11 11 11 11 13 14 15 17 19 19 22 25 26 27 28 27 26 24 24 25 25 24 25 27 28 24 23 25 28 31 32 32 35 36 34 31 27 25 26 29 32 31 32 36 37 39 39 37 39 38 36 37 36 38 39 38 37 36 39 41 42 42 41 42 42 41 42 41 34 29 31 31
4 2 1 5 7 8 11 13 14 11 6 5 10 11 2 2 1 6 7 5 7 7 10 12 12 11 11 11 12 13 14 14 16 18 20 22 24 26 28 29 28 28 28 26 25 25 25 24 24 26 24 21 24 27 29 29 28 29 31 31 28 24 23 22 23 28 31 32 33 33 36 39 36 35 37 39 40 35 33 37 39 38 37 38 40 42 43 41 40 42 42 40 40 40 35 31 27
4 1 1 5 6 9 12 13 10 9 9 4 7 8 8 6 2 9 8 5 7 7 10 11 11 11 11 11 12 14 16 16 17 20 22 24 26 27 28 29 28 29 30 29 27 27 26 23 22 24 24 21 21 25 27 26 25 26 27 28 28 25 23 24 27 30 32 32 32 32 34 37 37 35 33 37 42 38 32 36 40 40 39 40 42 41 41 43 43 43 45 41 38 40 39 32 28
2 2 3 5 7 11 13 12 8 8 10 6 1 6 9 8 2 9 8 5 5 9 12 13 13 13 14 13 14 17 18 18 18 20 21 24 28 29 29 30 30 30 31 30 30 28 27 25 22 22 24 23 20 21 23 22 22 23 23 24 27 28 27 28 30 32 34 33 29 30 31 31 35 38 33 33 40 40 37 40 42 42 42 41 44 44 42 43 44 42 45 44 39 39 39 36 32
2 3 3 5 6 10 10 10 10 7 7 7 4 5 7 6 3 3 4 3 6 11 13 14 14 14 15 15 17 19 19 19 19 20 22 24 29 32 32 33 33 33 31 31 31 30 29 28 25 22 24 25 23 21 21 21 20 21 20 20 24 28 29 31 32 31 33 33 29 30 32 31 32 36 34 34 40 41 41 42 42 43 45 43 43 45 44 45 44 42 44 45 42 41 41 38 35
3 4 4 5 6 8 8 7 8 6 5 8 5 2 5 6 5 4 1 3 5 9 10 12 12 13 15 17 19 20 19 18 19 20 22 27 32 34 35 35 36 35 34 33 33 32 31 31 29 27 26 27 26 23 21 21 21 19 19 21 25 28 29 33 33 31 31 31 30 30 31 31 30 33 36 36 39 41 41 42 41 42 44 44 44 44 45 47 46 44 45 46 46 43 42 40 37
4 4 4 6 6 6 7 6 5 4 5 6 3 3 3 6 4 1 1 3 5 8 9 11 13 15 17 18 18 19 18 17 18 19 22 30 35 36 36 36 37 38 36 35 34 34 33 32 32 31 30 29 29 27 22 19 19 19 18 20 24 26 27 29 30 30 31 32 31 29 28 31 30 32 38 38 37 38 41 42 41 42 43 44 46 45 47 51 49 46 45 46 46 44 44 43 39
3 2 6 7 5 4 5 4 1 3 4 5 7 2 3 7 3 3 5 5 7 8 11 13 16 18 19 19 19 19 17 18 20 19 21 26 30 33 36 36 38 38 37 36 35 34 34 34 34 33 33 32 32 31 27 21 18 17 17 16 19 24 26 25 26 27 29 30 30 33 30 29 32 34 38 40 40 39 41 43 42 42 42 44 46 46 48 54 53 48 46 46 46 45 45 46 42
2 3 4 5 5 4 4 4 3 6 5 7 6 4 5 10 7 4 6 6 8 10 12 13 15 17 18 19 19 17 16 19 20 18 20 22 23 29 34 36 37 37 37 37 37 36 35 35 36 35 34 35 34 33 32 27 21 18 16 15 16 22 24 24 25 26 28 29 28 31 33 28 26 32 36 39 42 41 40 42 42 40 42 44 46 46 46 53 55 50 47 47 47 46 45 46 45
3 2 1 2 4 6 6 6 5 7 4 6 3 5 5 11 6 7 6 7 9 12 12 10 12 15 17 19 19 17 18 19 19 19 21 20 23 30 35 37 37 37 39 40 39 39 37 37 38 37 36 36 35 34 33 32 26 20 17 15 14 18 22 23 25 26 28 31 30 29 31 31 27 27 35 39 41 42 40 41 43 41 42 45 48 47 44 49 55 52 48 49 49 48 47 46 44
2 2 1 3 2 4 6 5 5 8 8 5 4 2 4 6 2 10 5 7 9 10 9 8 12 15 16 17 18 18 19 19 19 20 22 23 29 36 37 38 41 42 43 42 41 40 40 39 40 40 38 37 37 35 34 32 29 22 17 15 14 15 20 22 23 25 27 30 32 32 32 32 33 30 31 40 42 43 42 42 44 44 45 47 50 50 46 46 51 52 50 51 51 49 49 47 44
2 3 2 3 2 4 6 3 2 5 10 9 4 4 4 1 7 10 3 8 10 10 9 11 15 16 17 17 17 17 18 19 20 21 23 26 32 38 39 41 46 46 44 43 43 42 42 42 41 41 40 39 38 37 34 33 30 24 19 16 15 15 18 21 22 24 26 28 30 31 33 33 32 36 33 36 44 46 45 44 44 45 45 47 49 50 47 45 46 48 48 49 50 49 49 48 46
3 3 2 1 3 1 5 4 0 2 8 8 4 5 7 1 6 6 4 11 12 10 11 14 16 19 20 18 17 18 19 21 22 23 24 26 32 38 43 45 46 47 47 47 47 44 43 42 41 42 41 39 38 37 34 32 30 26 21 19 17 16 18 20 20 23 25 27 30 30 32 34 32 35 37 32 42 47 46 46 47 46 45 45 47 48 47 47 47 47 47 48 49 49 49 50 49
2 3 1 5 4 2 1 2 2 4 8 7 6 9 9 6 2 2 6 13 13 13 15 17 19 21 21 19 19 21 22 24 25 25 26 29 34 40 46 49 49 49 50 49 48 46 43 40 39 40 41 39 38 36 34 31 28 25 23 21 21 19 19 21 21 22 23 25 29 30 31 34 33 33 39 35 38 47 45 47 48 47 46 45 46 48 46 46 47 46 46 49 50 49 48 48 50
1 1 2 3 1 2 3 1 2 6 9 7 8 10 9 7 2 2 8 13 14 15 18 20 22 22 21 21 21 23 24 24 24 25 25 28 35 42 46 48 50 52 52 49 46 42 39 37 37 39 42 41 38 36 34 30 27 25 26 27 26 24 22 23 24 23 22 23 26 29 29 32 33 31 36 39 34 45 45 45 47 46 47 47 47 48 47 46 47 45 45 46 48 49 47 46 47
3 1 3 2 1 2 2 1 1 5 7 7 10 10 6 2 1 4 10 12 13 16 18 19 21 22 21 21 21 23 24 22 23 25 27 29 35 44 49 48 47 50 51 47 41 36 35 39 42 44 46 44 39 35 34 33 30 28 29 29 28 27 27 26 26 25 23 23 25 26 28 30 33 31 34 40 34 42 47 45 46 46 46 47 47 47 48 48 46 45 44 45 47 47 46 44 45
3 4 5 3 1 2 2 2 3 4 7 6 8 10 5 2 3 6 9 10 12 16 19 18 19 21 22 22 22 23 23 23 25 26 29 31 35 42 48 48 46 45 43 40 39 39 38 39 40 41 42 42 39 36 34 35 35 32 31 30 29 28 28 28 28 27 26 26 25 25 27 28 31 31 32 37 36 36 47 46 46 47 46 47 48 46 47 47 45 45 45 45 48 48 46 45 45
5 6 6 5 3 3 3 5 4 3 5 5 6 12 8 0 1 3 5 9 13 16 19 19 19 22 23 23 24 25 24 25 26 27 29 29 31 38 44 46 47 44 39 39 40 40 38 36 34 35 35 36 36 36 37 37 36 36 34 33 33 30 28 30 30 28 28 27 26 26 26 27 29 31 31 33 38 34 44 48 46 48 47 47 48 47 46 46 45 46 47 46 47 48 46 44 44
Wind_Direction
315 334 144 163 153 164 174 222 228 149 244 64 54 3 79 40 323 291 245 215 298 190 205 291 155 154 267 303 289 300 291 267 275 274 302 16 234 278 266 230 215 220 221 212 211 213 211 211 210 205 204 204 209 213 212 212 210 211 217 215 217 223 226 228 228 229 233 231 225 224 224 228 231 233 234 233 232 233 234 235 242 249 248 240 239 238 234 231 227 224 221 230 228 204 191 180 186
296 188 143 147 154 196 153 240 278 66 239 83 71 7 48 101 269 330 355 353 355 46 3 259 205 238 304 321 298 291 269 234 251 270 292 294 284 289 279 247 223 220 218 214 213 213 213 214 214 212 210 210 212 213 212 213 213 214 219 217 218 223 225 227 229 231 231 227 223 225 225 228 228 228 230 229 231 230 230 234 241 250 253 245 240 240 237 232 227 223 219 227 225 204 191 183 184
290 160 149 151 158 238 166 215 301 22 15 55 63 74 63 319 336 351 357 357 9 34 336 212 240 255 248 263 262 274 276 232 246 261 272 279 286 295 284 255 230 220 216 215 213 212 214 215 216 215 215 214 214 214 213 214 215 217 219 217 218 222 226 225 225 228 228 223 220 225 225 226 226 224 224 225 231 231 231 235 239 243 250 250 243 241 240 233 228 223 220 224 214 196 188 183 179
265 151 158 181 195 226 225 226 359 350 27 38 34 82 55 329 343 334 345 352 344 265 243 201 233 207 233 266 287 277 275 279 248 250 273 275 271 287 282 247 228 218 217 215 212 215 215 216 217 215 217 216 215 215 214 215 217 220 222 222 221 221 225 223 219 219 219 219 221 226 223 225 223 222 222 222 227 231 235 234 235 239 244 249 245 241 238 235 230 226 225 220 202 189 185 181 176
121 138 168 218 249 83 272 114 38 330 33 16 342 48 3 334 330 322 326 321 292 231 224 216 256 175 233 274 292 283 283 310 271 237 263 282 274 278 277 246 229 221 220 217 214 217 217 220 218 214 217 216 215 216 215 216 218 221 223 227 226 223 222 221 220 217 215 218 222 225 222 224 220 219 222 222 220 225 235 235 236 238 243 245 242 239 234 234 231 230 228 213 199 191 186 181 177
121 116 146 184 77 33 257 94 35 32 54 1 334 12 358 346 328 321 316 317 302 214 227 229 283 290 260 248 222 247 278 313 334 255 251 280 286 283 279 257 236 228 226 222 218 219 219 223 219 215 217 216 215 216 214 215 218 219 220 225 227 226 223 222 224 219 217 220 223 224 223 225 223 222 224 224 222 221 229 236 240 240 244 244 241 237 232 234 231 235 229 212 206 192 187 186 180
171 164 126 133 115 238 261 32 16 47 79 44 343 354 354 355 336 319 317 332 76 174 218 241 307 290 277 275 238 242 245 256 280 281 274 281 289 290 285 268 248 235 230 227 224 222 222 226 221 216 218 218 216 216 215 215 215 215 219 223 223 225 225 225 227 221 220 225 226 226 226 229 230 229 228 228 227 225 227 235 243 244 245 244 242 236 230 233 232 239 230 211 209 194 188 188 181
216 233 184 222 156 174 268 33 14 42 93 202 308 308 327 342 328 303 313 329 313 271 214 235 264 267 289 61 264 254 237 255 265 278 281 281 283 285 284 274 260 244 235 233 230 226 225 228 222 218 219 219 218 218 217 217 214 213 220 224 221 222 224 225 227 223 226 231 232 230 229 230 233 232 231 229 228 229 231 236 245 248 248 244 243 236 229 230 234 242 226 205 203 190 185 182 177
256 271 240 241 174 127 209 195 80 51 189 211 265 257 286 315 289 276 294 298 295 289 245 238 208 257 306 302 275 294 250 270 275 283 288 285 285 282 280 274 267 255 245 239 233 230 227 227 222 219 220 219 219 220 221 221 218 217 222 224 220 220 223 224 226 225 228 234 233 232 232 232 234 234 232 229 228 229 232 238 245 252 251 246 244 234 226 227 238 243 217 198 193 182 179 177 174
258 356 261 216 177 268 178 136 92 118 212 281 278 270 276 288 256 248 272 303 316 291 298 44 224 251 296 302 292 300 286 295 293 296 300 295 294 289 282 274 268 263 256 248 238 232 228 225 221 219 219 218 220 220 222 223 223 225 228 226 221 222 225 225 226 226 229 235 234 235 234 235 236 235 233 228 229 230 231 237 245 256 254 246 241 227 222 229 241 242 217 199 188 179 179 180 178
253 61 303 238 241 325 13 349 349 5 355 315 263 263 294 197 239 244 244 291 310 281 260 148 252 263 285 293 289 280 282 300 300 302 312 305 298 295 288 276 268 263 260 256 246 237 231 227 221 220 220 220 221 221 222 224 225 230 233 232 226 225 227 228 227 227 230 234 236 237 236 236 236 235 232 228 231 230 229 237 246 258 258 245 237 226 223 233 237 232 213 195 182 175 176 179 178
271 34 269 260 30 352 9 325 325 334 328 318 117 116 335 178 229 312 312 301 308 293 268 196 290 336 291 294 297 291 283 297 313 318 324 317 305 298 289 278 270 262 259 258 252 243 237 232 226 224 223 223 222 222 223 225 227 231 237 238 232 228 229 229 227 227 229 232 236 238 238 237 234 233 233 233 235 232 232 240 248 257 260 248 238 230 224 231 233 215 194 179 174 171 170 172 171
307 329 264 278 54 336 24 300 313 320 315 96 61 99 186 215 288 332 329 311 296 293 302 203 272 321 281 295 297 300 319 344 338 334 330 320 310 300 289 279 271 262 258 257 254 248 243 239 233 230 228 226 225 224 224 225 227 231 238 241 235 230 229 229 228 229 230 232 236 236 238 239 234 233 237 239 238 237 238 243 250 256 259 251 237 227 220 221 213 186 179 170 165 165 167 169 167
320 278 288 28 104 275 231 281 327 323 25 79 58 120 185 272 321 339 319 315 307 304 348 78 275 275 273 297 302 324 14 340 329 327 326 320 310 299 288 279 272 266 259 255 252 249 248 246 240 236 233 231 228 226 226 226 228 231 237 239 236 232 229 228 228 232 235 235 235 233 237 240 237 236 239 243 242 243 244 245 250 253 255 245 225 214 196 186 176 165 169 166 162 162 164 168 168
318 226 298 132 151 217 195 291 1 315 22 55 46 130 218 254 268 289 299 311 320 2 357 266 198 271 323 328 308 337 341 319 322 321 321 319 312 299 289 280 273 266 261 256 252 249 247 249 247 242 237 234 231 229 228 227 228 229 234 236 236 236 230 228 229 234 238 238 236 233 235 238 236 235 238 240 239 240 241 240 244 250 252 233 208 200 176 167 166 156 158 161 163 163 163 166 167
324 253 253 183 179 226 161 262 348 280 0 29 96 160 292 266 169 276 321 305 302 344 209 259 176 263 307 299 294 318 319 314 317 317 318 316 312 304 292 285 278 271 265 260 255 252 248 248 248 245 241 237 232 230 229 228 228 228 231 233 235 237 232 229 232 235 240 241 237 234 235 236 233 232 234 235 232 230 231 233 237 247 251 227 197 181 169 165 162 154 152 152 155 157 157 157 154
299 251 246 218 182 167 135 194 1 337 340 350 132 141 321 334 124 283 296 255 276 295 273 259 239 247 273 280 292 304 308 312 316 317 317 314 311 304 296 288 284 279 274 269 261 256 252 250 248 246 243 238 233 231 231 229 229 229 230 232 234 237 234 231 233 236 240 241 236 235 236 235 234 232 233 233 228 225 226 228 232 240 240 222 191 168 170 169 162 157 151 148 151 154 152 148 147
276 236 261 278 122 74 109 73 29 338 327 327 327 24 329 327 0 339 294 256 260 289 298 272 254 246 251 263 286 305 313 318 322 323 319 317 318 318 320 316 305 295 288 282 274 265 258 253 250 246 244 240 235 231 233 232 230 230 231 233 234 236 236 232 233 235 238 239 235 234 236 235 233 232 232 230 226 224 224 226 229 229 226 218 194 171 171 171 165 163 159 156 157 156 151 148 151
274 239 287 48 86 58 57 50 58 332 323 318 319 351 324 325 354 343 310 310 307 309 341 354 338 338 317 292 304 326 325 322 327 333 333 333 336 337 337 334 330 323 315 303 291 280 269 262 256 249 246 242 237 234 233 233 231 229 231 234 234 233 234 232 231 233 235 236 233 232 233 232 231 228 227 225 226 226 222 225 224 216 214 214 198 179 174 173 169 166 162 161 160 156 150 149 153
292 262 289 68 84 44 110 286 57 331 315 307 310 330 320 340 25 312 304 312 327 3 11 7 356 355 346 340 348 342 332 338 354 358 355 356 355 352 346 341 337 332 329 320 309 297 283 276 268 258 252 246 240 238 237 236 233 229 228 231 231 231 231 230 229 231 232 233 231 231 230 229 230 227 227 227 227 229 224 219 208 199 194 188 196 183 171 169 164 158 156 158 159 156 154 154 155
128 242 320 74 114 339 120 208 327 20 290 294 300 307 313 356 97 277 302 318 355 19 11 8 359 353 343 340 345 346 352 6 17 18 14 13 8 4 357 350 343 336 331 325 319 311 298 286 276 268 261 255 248 244 241 240 237 234 229 226 227 227 227 226 227 228 229 229 229 231 229 229 231 226 226 228 224 226 226 214 195 189 180 171 189 176 157 153 150 151 154 157 159 157 157 157 159
219 220 309 81 164 356 99 132 55 122 277 283 290 307 323 332 294 283 312 331 6 11 7 9 358 348 337 332 345 355 10 19 22 21 18 16 12 7 2 356 353 348 341 335 330 324 314 301 287 276 267 261 256 252 249 246 241 236 234 230 224 222 225 225 226 227 227 227 225 226 227 229 230 226 224 223 217 219 222 211 193 187 175 163 174 169 161 158 154 156 156 156 160 158 158 159 161
277 206 243 152 168 326 93 118 129 222 290 281 295 333 323 306 318 346 317 306 343 3 7 4 353 349 339 345 15 22 27 28 24 20 17 16 12 7 3 360 357 353 350 346 340 334 325 314 302 286 274 265 258 255 253 252 247 239 236 235 228 223 225 225 224 226 226 225 222 222 224 225 226 225 221 214 209 212 213 206 193 187 178 172 176 175 177 176 168 164 159 159 162 158 160 163 164
254 251 300 146 147 181 239 135 191 243 271 279 307 318 296 309 334 339 313 337 0 2 8 5 0 5 14 29 37 37 35 32 27 21 17 15 10 7 6 5 3 0 358 355 350 344 335 325 314 296 283 273 264 258 253 251 250 244 239 236 232 227 223 221 221 223 223 224 222 220 220 221 223 224 221 214 208 206 204 199 193 189 184 182 186 184 182 178 171 167 163 164 166 160 159 164 168
213 277 323 14 136 150 232 256 247 241 263 279 301 297 309 35 309 275 27 40 24 1 19 22 18 27 39 44 43 42 38 32 27 20 16 13 8 7 8 6 4 5 2 357 354 351 345 337 325 307 293 284 274 264 256 252 250 248 242 237 232 229 224 219 219 219 219 221 221 220 219 220 222 223 223 219 209 205 204 200 197 193 189 187 186 182 180 178 170 167 167 167 167 164 161 164 170
202 289 314 306 307 326 248 229 216 205 256 280 302 309 6 89 223 137 72 47 6 354 35 39 39 48 48 48 45 41 37 31 25 19 17 14 11 9 7 4 1 0 358 357 356 354 350 345 336 320 304 291 282 270 261 256 251 249 245 240 235 233 229 223 221 219 218 218 218 220 221 220 220 222 224 222 210 207 205 202 203 198 193 192 190 185 182 182 172 164 167 166 165 165 165 166 168
334 302 307 295 294 306 235 169 144 146 159 240 309 322 347 4 262 98 66 37 360 7 48 51 53 57 51 48 42 38 36 30 23 18 17 14 13 8 5 3 360 356 353 355 355 352 350 349 345 334 318 302 289 276 266 261 256 252 248 244 241 238 232 225 223 220 219 218 217 221 222 221 221 220 223 221 210 206 204 201 204 198 196 196 193 190 184 181 173 163 165 167 167 167 167 168 168
346 318 310 291 266 165 177 136 126 138 123 235 297 318 323 316 20 68 43 21 1 19 62 59 57 56 47 45 40 37 33 27 21 19 16 12 10 5 3 3 358 353 352 353 352 352 353 354 352 345 335 318 300 286 274 266 260 256 251 247 242 239 234 229 226 221 220 219 216 221 222 221 221 219 221 221 213 206 205 202 199 195 198 196 190 189 186 181 175 169 169 170 171 170 167 169 169
338 342 307 299 300 156 149 94 115 139 118 206 270 315 305 300 64 62 38 14 1 36 74 59 54 50 42 41 37 36 29 24 23 19 14 10 7 5 3 2 357 352 349 348 350 354 357 357 354 348 343 332 314 298 285 275 265 259 254 250 244 239 235 231 229 224 223 222 217 220 222 221 222 219 220 223 220 212 209 205 198 198 199 193 186 187 187 187 184 175 171 172 171 169 165 166 167
276 56 269 309 335 172 141 94 71 117 138 187 274 327 314 333 52 66 45 6 9 60 77 55 52 46 39 38 33 35 27 23 22 17 13 10 8 4 2 1 358 352 347 346 348 354 355 355 355 350 343 336 326 310 296 287 274 264 257 254 248 240 234 230 231 230 227 225 222 222 222 221 222 220 218 222 222 216 214 209 200 200 199 192 186 185 185 186 185 175 170 170 169 166 163 164 166
271 262 183 338 348 302 62 80 55 86 147 190 333 325 310 322 13 54 12 6 43 76 77 56 53 46 41 38 31 30 26 22 18 15 13 10 7 4 0 358 356 352 348 345 346 351 352 351 353 349 342 335 328 320 305 292 282 272 262 258 254 246 238 231 230 232 231 229 226 224 222 221 222 221 218 221 222 217 213 211 207 203 200 194 187 183 182 182 183 179 174 169 167 166 163 165 166
299 329 298 22 350 309 340 66 80 56 86 16 355 331 308 309 337 10 3 56 80 84 75 59 56 47 42 37 30 28 23 19 16 14 11 7 5 2 358 356 353 350 346 344 344 347 348 350 351 347 344 340 331 323 314 299 289 283 273 264 259 252 245 238 233 233 233 232 229 226 223 220 220 221 219 219 222 218 211 212 212 207 201 194 186 184 183 180 182 182 178 170 165 165 163 164 167
70 16 331 333 329 313 326 87 98 40 13 34 37 342 302 296 323 338 9 81 92 89 78 65 57 49 43 36 31 27 21 18 15 12 8 4 1 358 356 353 351 348 345 344 344 344 345 347 348 346 344 341 333 325 319 309 300 296 287 273 264 256 250 246 242 240 237 233 231 228 224 222 220 222 220 217 219 219 213 212 214 209 204 197 189 189 188 183 180 178 177 171 165 165 164 164 165
346 357 330 309 309 306 311 303 91 25 357 338 69 172 289 296 318 333 45 92 96 90 81 68 57 49 43 35 30 26 20 17 13 8 4 359 357 354 353 352 350 348 345 345 345 344 344 343 345 346 344 340 335 329 321 316 312 307 299 285 269 259 254 250 244 242 241 238 235 231 226 225 224 223 220 216 216 219 214 210 214 213 206 200 191 188 188 185 182 178 175 173 168 165 165 165 165
313 322 318 305 301 289 295 300 359 10 340 321 340 5 310 306 318 4 75 96 96 88 81 66 54 45 38 32 27 24 19 16 10 4 360 356 353 352 351 352 351 348 344 343 345 346 344 342 343 344 344 343 339 333 326 321 318 312 310 303 281 261 254 252 246 240 239 239 238 235 232 230 226 224 220 216 213 218 215 207 212 214 207 199 191 185 185 186 185 181 176 174 172 169 168 168 167
301 306 298 294 300 286 287 296 339 5 334 329 355 345 323 309 326 49 91 96 91 85 73 58 46 39 33 28 24 19 16 13 6 0 358 355 351 350 349 349 350 350 346 343 345 346 345 344 344 344 345 344 341 338 334 327 320 313 311 309 294 271 256 250 247 243 238 236 236 235 235 232 225 221 219 215 211 215 213 205 208 212 207 199 192 188 185 185 185 181 178 176 173 170 169 169 168
285 295 283 285 296 290 293 300 343 10 338 332 342 338 327 310 337 83 104 93 85 78 64 55 43 37 30 25 22 16 13 7 359 357 357 356 352 349 348 347 348 349 349 346 346 346 344 343 344 346 345 345 344 342 339 333 325 318 311 306 300 289 269 250 245 244 240 236 235 236 234 230 221 217 216 213 210 213 211 204 204 207 205 199 195 193 187 183 182 180 179 179 174 166 163 164 166
272 289 292 295 297 302 301 295 342 6 341 323 328 338 330 314 1 100 107 90 88 76 66 58 42 38 29 22 17 11 8 360 355 355 355 356 354 351 348 347 347 348 347 347 346 345 342 341 342 344 344 344 344 342 341 337 330 322 313 306 302 297 284 264 248 244 242 237 235 237 236 231 223 218 215 207 203 206 207 203 200 201 202 200 197 192 187 183 181 179 178 178 174 167 165 166 165
281 296 296 297 315 324 306 266 7 352 326 316 329 336 317 320 74 104 103 99 101 87 77 62 42 38 28 19 12 5 1 355 354 353 352 353 353 351 348 344 345 345 342 343 344 343 340 338 337 338 340 342 342 341 341 337 332 327 317 308 304 299 293 283 268 253 247 241 236 236 235 232 227 221 215 205 202 202 203 202 198 197 197 197 195 187 185 185 182 181 179 177 173 167 167 169 170
279 310 298 303 341 342 314 309 339 323 289 306 327 321 294 289 103 105 107 114 116 101 79 58 47 41 27 19 12 4 358 352 352 350 349 349 348 349 347 344 342 339 336 337 340 340 336 334 332 331 333 338 340 340 340 337 335 333 325 318 313 305 297 292 282 267 254 244 239 236 233 231 226 220 214 208 208 206 202 203 201 196 194 195 193 186 185 184 182 182 180 176 173 166 165 171 175
289 334 305 319 334 327 307 313 323 314 291 333 336 317 262 152 112 117 127 123 112 86 54 42 39 34 21 13 8 2 358 354 352 349 346 345 345 346 345 342 339 335 333 332 333 334 329 326 325 325 325 331 338 340 341 339 337 334 329 326 324 316 306 298 285 273 263 250 241 235 232 231 225 220 215 209 209 208 202 202 204 199 196 196 192 187 186 186 183 181 179 177 175 169 165 169 175
303 112 24 322 314 313 312 317 327 320 306 54 13 328 258 137 354 146 144 114 94 64 41 36 28 22 12 4 1 357 355 355 353 352 348 344 343 344 343 341 336 332 332 330 326 325 321 319 317 318 319 324 334 339 341 340 337 334 331 328 325 319 311 302 289 280 273 261 247 236 232 232 227 220 214 207 207 209 203 200 203 202 198 196 191 187 186 185 183 181 180 179 177 173 169 169 175
300 86 351 309 305 313 315 319 327 309 300 11 27 309 270 296 292 150 144 117 98 57 36 31 20 16 9 2 0 357 357 356 354 352 349 344 341 340 339 337 334 330 330 328 323 318 316 314 312 313 315 317 326 335 339 339 337 334 331 329 326 322 316 307 302 296 285 271 254 240 235 233 228 220 212 207 207 209 205 199 200 201 198 196 191 188 187 186 185 183 182 182 179 175 173 173 176
294 61 321 306 312 313 312 314 303 287 303 315 229 240 269 295 217 153 146 126 71 32 21 16 12 10 4 2 1 358 359 357 352 347 344 342 340 337 334 333 332 329 327 326 323 318 314 311 307 307 312 315 317 324 332 333 331 331 329 329 329 327 322 314 311 308 297 282 263 245 238 232 227 221 215 209 205 205 205 201 200 201 199 197 192 189 189 189 189 186 183 184 182 179 179 179 177
17 24 288 280 298 301 301 300 289 292 315 301 251 224 262 279 231 169 127 92 17 14 11 7 8 4 359 359 358 359 358 354 347 341 338 337 336 334 331 329 328 327 325 323 322 319 314 312 308 303 307 314 316 315 321 323 323 325 325 329 333 331 328 325 320 316 307 290 269 251 240 231 226 221 216 212 206 204 206 203 201 200 199 195 192 191 190 190 191 189 185 184 185 185 185 183 181
332 310 265 263 282 291 286 279 290 305 294 282 280 221 262 280 278 280 102 86 14 5 4 4 3 358 357 357 356 355 352 346 341 336 334 333 331 329 328 326 325 325 324 321 320 318 314 311 309 306 305 309 312 308 307 312 315 318 322 331 339 338 335 332 327 322 319 307 284 262 244 232 226 219 214 213 209 205 205 203 201 200 198 195 192 192 191 191 192 191 187 184 186 188 188 187 187
288 285 306 310 299 289 277 274 296 300 272 254 193 122 308 293 291 295 115 85 32 5 358 359 358 356 356 354 351 348 343 339 334 331 331 329 327 326 325 325 323 321 320 317 316 315 313 310 307 306 304 302 306 306 299 298 304 307 313 325 337 343 340 335 331 325 324 321 308 288 260 236 226 222 217 213 210 207 203 203 202 199 199 196 193 192 193 194 194 192 188 186 187 188 188 190 192
284 352 347 328 303 274 257 262 242 248 266 191 173 114 334 276 281 104 116 76 41 13 2 359 357 354 352 347 342 340 337 334 331 330 329 327 325 325 324 323 322 319 317 315 313 311 311 308 304 303 303 301 301 303 300 292 290 294 301 313 328 340 342 336 329 324 322 322 319 313 296 255 228 220 217 213 210 208 203 202 201 199 198 195 193 193 193 193 194 193 190 189 189 189 188 189 192
6 31 359 322 305 307 271 271 249 254 259 161 175 347 325 267 273 145 123 58 30 14 8 1 355 349 343 339 334 333 333 330 328 327 327 326 323 323 322 321 320 319 317 314 312 310 308 306 304 301 300 300 298 298 299 295 286 284 290 300 317 330 338 337 328 323 321 319 317 318 314 291 249 221 212 210 208 205 201 200 198 197 197 195 194 194 192 191 192 193 193 192 191 192 191 190 191
35 58 42 287 312 322 295 292 293 278 267 162 174 342 290 267 266 152 121 40 22 13 7 356 349 340 335 334 329 330 330 326 326 325 326 326 322 322 321 320 320 319 318 316 312 311 308 304 304 301 298 297 296 292 294 294 285 278 279 287 305 320 329 333 329 323 319 318 317 314 313 310 293 249 216 207 208 204 200 201 198 196 197 197 196 195 193 192 192 192 193 193 193 194 194 193 194
71 108 173 244 262 282 282 302 308 300 304 271 221 202 253 283 148 147 128 33 20 11 2 347 342 334 331 331 327 329 328 323 324 324 325 326 323 322 321 321 321 319 317 315 313 312 309 304 301 301 299 297 296 292 289 289 284 274 269 274 287 304 317 323 324 323 321 319 317 315 311 311 310 290 242 214 209 206 201 201 200 197 197 198 198 197 195 194 192 192 193 193 193 194 194 193 194
120 115 207 242 217 240 265 306 292 287 301 289 228 204 258 305 122 140 97 18 12 7 356 342 337 332 331 329 328 330 326 324 326 325 326 326 324 323 323 322 321 318 314 312 313 312 309 305 301 300 299 297 296 293 286 285 283 274 262 265 273 286 304 312 314 318 323 321 316 315 313 308 308 306 279 231 211 207 203 200 201 200 197 197 197 197 196 195 193 192 192 192 192 191 191 192 193
139 160 211 96 81 223 268 293 197 243 279 275 253 270 285 284 137 139 30 5 2 357 347 337 333 333 331 329 330 331 327 326 327 326 327 326 326 325 322 318 316 316 315 313 313 312 309 306 302 300 299 297 296 293 286 281 280 273 262 261 266 273 291 301 304 308 314 320 319 314 314 311 306 309 301 258 215 206 206 201 199 199 198 197 197 196 197 195 194 193 191 190 190 190 190 191 193
176 207 128 97 101 125 190 292 322 288 275 271 274 283 290 294 242 153 2 354 351 345 340 335 334 335 331 329 332 331 328 327 327 328 327 326 326 324 320 316 316 318 318 316 313 311 309 307 304 302 300 298 295 293 288 280 275 270 262 261 263 267 281 292 296 300 303 312 318 315 312 312 308 307 310 286 229 206 205 202 198 198 198 197 196 195 195 195 193 194 192 189 189 189 189 191 192
353 317 95 112 186 168 145 152 305 289 282 281 285 287 286 284 292 26 345 344 345 338 337 334 334 334 330 329 330 328 327 326 325 328 327 326 324 321 319 317 318 319 317 315 314 312 311 313 315 314 310 305 297 292 289 282 273 266 262 264 266 267 272 284 292 294 295 300 310 314 311 311 310 306 311 301 250 210 202 201 198 197 196 195 195 195 193 192 193 193 191 189 188 188 188 190 192
65 98 136 121 297 195 175 157 256 267 274 281 293 301 293 242 64 357 335 342 343 335 334 331 330 330 326 327 327 325 326 323 323 326 326 325 320 318 320 320 319 320 317 315 316 316 315 315 315 314 312 310 306 300 294 287 280 269 262 262 264 266 267 274 286 289 288 293 303 310 309 309 311 306 307 307 271 218 200 199 198 195 194 193 194 195 193 191 191 191 190 188 188 188 188 189 191
160 185 175 165 162 162 202 231 184 229 262 268 284 292 282 128 39 345 337 342 338 332 330 326 324 324 323 325 325 323 324 322 323 326 325 324 319 317 321 322 320 319 319 319 318 315 312 310 307 304 302 302 305 307 304 296 289 280 269 263 260 263 265 267 278 284 284 290 299 307 309 308 309 305 303 307 289 235 203 197 198 196 194 193 192 193 193 190 189 190 191 190 188 188 189 189 190
216 212 189 175 166 162 248 251 188 181 242 234 256 275 277 5 356 335 343 334 331 330 326 322 322 323 322 324 324 322 322 323 323 321 318 321 323 321 322 323 322 320 319 318 318 315 312 311 311 310 304 298 298 303 305 301 295 287 279 273 266 261 261 265 272 278 279 286 296 304 308 307 306 306 301 303 298 258 210 197 198 196 193 193 192 191 191 190 189 189 190 190 188 187 189 191 189
Height
790 790 790 790 790 791 791 792 797 797 795 800 801 801 803 803 804 802 800 800 799 796 795 797 795 795 796 796 793 790 790 791 790 793 790 774 770 771 770 771 771 771 771 771 772 772 773 773 773 774 775 776 777 777 778 779 780 780 780 781 780 781 781 781 782 783 783 784 785 785 786 787 787 788 788 789 790 791 792 792 792 793 793 793 793 793 793 794 794 795 796 795 795 796 797 797 798
790 790 789 790 790 791 793 793 798 798 795 802 803 802 804 803 804 799 796 798 797 797 798 797 795 795 795 794 793 792 789 783 780 780 775 769 771 770 770 771 770 771 770 771 771 772 773 773 773 773 774 774 775 776 777 778 779 779 780 780 780 780 780 780 781 781 782 783 783 784 785 785 785 786 786 787 788 789 790 790 791 792 792 792 792 792 792 792 793 794 794 794 794 795 796 797 798
789 789 789 790 790 790 793 793 798 802 802 807 804 800 804 802 800 797 796 797 797 799 800 798 798 795 795 795 793 793 786 778 776 775 772 770 771 769 770 770 770 770 769 770 770 770 771 771 772 772 773 773 774 775 775 776 777 778 778 779 779 780 780 780 780 780 781 782 783 783 783 783 784 784 784 785 786 788 788 789 789 790 790 791 791 790 791 791 792 792 793 793 793 794 795 797 798
789 789 789 789 790 791 792 796 799 802 805 810 806 800 802 801 798 796 795 797 797 799 799 797 797 791 793 795 790 790 785 777 775 775 773 770 770 770 770 770 770 770 769 769 769 769 769 770 770 771 772 772 773 774 774 775 775 777 777 778 778 779 779 779 780 780 780 781 782 782 782 782 782 782 783 784 785 786 786 787 788 788 788 788 789 789 789 790 791 791 791 792 792 794 795 797 798
789 789 789 788 791 793 795 800 801 801 805 807 804 799 799 799 798 796 794 795 795 797 797 796 795 789 790 791 789 788 782 776 775 775 774 770 770 770 769 770 769 769 769 768 768 768 768 768 769 770 770 771 772 773 774 774 774 775 776 777 777 778 778 779 779 779 780 780 780 781 781 781 781 781 782 783 783 784 785 786 786 786 786 786 786 787 788 788 789 789 790 790 791 792 794 796 797
790 789 788 787 792 794 796 802 802 802 802 802 802 799 796 797 798 798 795 793 794 796 795 795 793 791 791 787 785 783 778 777 776 775 774 771 770 770 770 769 769 768 768 768 768 767 767 767 767 768 769 770 771 772 773 773 774 774 774 775 776 776 777 778 778 778 779 779 779 780 780 780 780 780 781 782 782 783 784 784 784 784 784 784 784 784 785 786 787 788 788 788 789 790 793 795 796
790 789 789 789 793 794 796 802 802 802 801 800 801 799 797 796 799 800 797 794 795 796 796 797 794 795 791 784 783 778 775 778 776 774 773 772 771 770 770 769 768 768 767 767 767 767 767 766 766 768 768 769 770 771 771 772 773 773 774 774 775 775 776 777 777 778 778 778 778 778 779 779 779 779 780 780 781 781 782 782 782 782 782 781 781 782 783 784 786 786 786 786 786 788 791 793 794
790 790 790 791 794 797 799 802 801 801 803 803 802 800 798 797 800 801 798 797 796 795 797 797 795 798 789 784 786 777 774 777 775 774 773 772 771 770 770 769 768 767 766 765 765 766 765 765 766 767 768 769 770 770 771 771 772 772 773 773 774 774 775 776 776 777 777 777 777 777 777 777 778 778 778 779 779 780 780 780 780 780 779 778 778 779 780 782 784 784 784 784 783 786 790 792 794
790 790 792 792 795 799 801 803 803 802 804 803 801 799 798 798 801 801 798 796 795 793 794 794 795 797 787 784 785 775 774 775 774 774 772 772 770 770 769 769 768 767 766 764 764 764 764 765 766 767 767 768 769 770 770 771 771 771 772 772 773 773 774 774 775 776 776 777 776 776 776 776 777 776 777 777 777 778 778 778 778 778 777 776 776 776 778 780 781 781 782 782 782 785 788 790 793
790 789 792 793 795 798 800 801 801 801 800 800 799 797 797 799 801 801 798 795 793 793 793 794 795 794 787 786 783 774 774 774 774 773 771 771 769 769 768 767 767 766 765 764 764 763 763 764 765 766 766 767 768 769 769 770 770 771 771 771 771 772 773 773 774 775 775 776 776 775 775 775 775 775 775 776 776 776 776 776 775 775 774 774 774 775 776 778 779 779 779 780 782 784 787 790 792
791 790 793 794 796 796 798 799 797 797 797 798 798 796 796 799 800 798 798 795 792 792 793 795 794 790 788 787 780 773 773 773 773 772 771 770 768 768 766 766 766 766 765 764 764 763 763 763 764 764 765 766 767 767 768 768 769 769 770 770 771 771 772 772 773 773 774 775 774 774 774 774 774 774 774 774 774 774 774 774 774 773 773 773 773 775 775 775 776 777 778 779 781 783 786 789 791
793 793 794 794 797 797 801 803 799 797 797 797 796 796 798 799 800 796 795 795 792 791 790 791 790 789 789 785 777 771 772 772 772 771 770 769 768 767 765 765 764 764 764 763 763 763 763 763 763 763 763 764 765 766 766 767 768 768 768 769 770 771 771 772 772 772 773 773 773 773 773 773 773 773 773 773 773 773 773 773 773 772 772 772 773 773 773 773 774 776 777 779 780 782 785 788 791
794 796 793 795 802 802 807 806 801 800 796 795 795 798 801 798 798 795 794 794 792 792 788 787 787 789 790 784 775 770 771 771 771 771 770 769 768 766 765 764 763 763 763 763 763 762 763 762 762 762 762 762 763 764 764 765 766 766 767 768 769 769 770 771 771 771 772 772 772 772 772 772 772 772 772 772 772 772 772 772 772 772 771 771 772 772 772 772 773 774 777 779 780 782 786 788 790
795 797 794 799 810 806 807 803 798 802 795 793 796 799 802 797 796 796 794 793 789 789 788 786 787 790 788 784 776 770 771 771 771 770 769 769 768 766 765 764 763 762 762 761 761 761 762 761 762 761 761 761 761 762 762 763 763 765 765 766 767 768 769 770 770 770 771 771 771 771 771 771 771 771 771 771 771 771 771 772 771 771 770 771 771 770 771 771 772 773 776 779 781 783 786 787 789
796 797 796 800 808 805 806 804 802 806 796 793 798 800 801 796 795 797 795 794 789 786 788 787 788 790 786 785 780 772 772 771 770 770 769 768 766 766 764 763 763 762 761 760 760 760 760 760 760 760 760 760 760 760 760 760 761 762 763 764 765 766 767 768 769 769 770 770 770 770 770 770 770 770 770 770 770 771 771 771 770 770 770 770 771 770 770 772 772 773 775 778 781 784 786 788 789
797 797 798 799 805 806 806 806 807 807 796 793 799 801 799 795 795 797 794 794 790 786 788 788 788 789 784 784 779 773 773 772 771 770 769 768 766 765 763 763 762 761 761 760 759 759 758 758 758 758 758 758 758 758 758 759 759 760 761 762 763 764 765 765 767 768 769 769 769 770 769 769 769 769 769 768 769 769 769 769 769 769 770 770 771 771 771 772 773 774 775 778 781 783 786 788 790
798 798 800 799 804 807 804 804 805 804 796 792 797 799 798 796 796 796 793 793 791 787 787 786 785 785 783 780 777 774 775 773 773 771 769 768 767 766 764 763 762 761 760 759 759 758 758 757 756 756 756 757 757 757 758 758 758 759 760 760 761 762 762 764 765 766 767 768 768 768 768 768 768 768 767 767 768 768 768 768 768 768 769 770 771 772 772 773 774 774 775 777 781 783 785 788 790
800 799 801 800 802 803 800 800 801 801 798 793 793 796 799 798 796 795 792 789 789 787 784 782 782 781 779 778 777 777 777 775 774 772 771 770 769 768 766 764 763 762 761 760 759 758 758 757 756 756 755 755 755 756 756 756 757 757 758 759 759 760 761 762 763 764 765 765 766 766 767 767 766 766 766 766 766 766 766 766 767 767 768 769 771 772 773 774 775 775 775 777 780 783 785 788 791
801 801 800 799 800 800 799 799 799 801 799 795 792 794 799 799 797 796 793 787 786 786 782 780 781 778 776 776 778 779 777 776 775 775 774 773 773 771 769 767 765 763 762 761 760 759 758 758 757 756 755 754 754 754 753 753 753 754 755 756 757 758 759 760 761 761 762 763 763 764 765 766 765 765 765 764 764 764 765 766 767 768 768 770 770 772 773 774 775 775 775 775 779 783 786 788 790
802 803 798 797 800 800 800 801 800 802 801 798 793 794 797 797 797 797 795 790 785 785 784 784 785 782 778 776 777 778 777 777 777 777 777 776 775 773 771 769 767 765 763 762 760 759 758 757 757 756 756 755 754 753 752 752 751 751 751 752 753 755 756 757 758 759 760 761 761 762 763 764 764 764 763 762 763 763 764 765 767 768 769 769 770 773 774 773 774 775 775 776 778 781 786 789 790
804 802 794 797 802 800 800 801 801 802 803 800 795 796 796 795 797 797 795 793 787 785 786 787 789 787 784 780 778 778 778 777 777 778 777 777 776 774 773 771 770 767 764 762 760 759 757 756 756 755 755 755 755 753 752 751 750 750 749 748 749 751 753 754 756 757 757 758 759 760 761 761 762 762 761 761 762 762 763 765 766 768 768 769 771 774 775 775 775 777 778 779 781 782 785 788 790
803 797 793 797 801 801 800 801 803 803 803 801 796 797 797 795 796 795 795 796 791 788 787 789 790 788 786 783 783 782 780 780 779 779 779 778 777 776 774 772 770 767 764 762 759 758 757 756 755 754 753 753 754 753 752 751 750 749 748 747 746 746 748 750 753 754 755 756 757 758 759 759 760 760 760 760 761 761 762 764 765 767 768 769 772 774 776 778 778 779 780 781 784 785 786 788 790
800 793 794 797 799 801 800 801 804 804 803 800 795 797 798 796 795 795 796 795 791 789 789 791 790 787 785 784 785 784 783 783 783 783 782 781 780 778 776 773 770 767 764 762 759 757 755 755 754 753 751 750 750 751 751 750 749 747 746 746 745 743 744 746 749 751 752 754 754 755 756 757 758 758 758 759 760 760 760 762 764 766 767 770 772 773 775 777 777 778 779 781 784 785 788 790 791
802 795 794 797 798 801 800 802 804 804 803 798 795 797 797 795 796 797 795 792 790 790 791 791 789 786 785 785 786 787 787 787 787 787 785 784 782 781 778 775 772 769 765 762 759 757 755 753 752 751 750 748 748 748 748 748 748 746 745 744 743 742 740 741 744 747 749 751 752 753 753 755 756 756 757 757 758 759 759 760 762 765 766 769 771 772 774 776 776 776 778 781 783 785 788 790 792
801 796 793 795 798 800 800 801 803 803 801 799 797 794 793 794 796 797 794 792 792 791 791 791 790 788 787 787 788 788 789 790 790 789 787 786 784 782 779 776 773 770 766 763 760 758 755 753 751 750 749 748 746 746 745 745 745 745 743 742 741 740 738 738 740 743 745 747 749 749 751 752 753 754 754 755 757 757 757 758 760 762 765 766 768 770 772 773 775 775 776 779 782 784 786 789 791
799 796 795 796 796 798 799 800 802 802 801 800 797 789 789 794 795 795 793 793 793 790 792 793 792 791 790 791 791 791 792 792 792 791 789 787 784 781 779 777 774 771 768 765 762 759 756 753 751 749 747 746 745 744 743 742 742 741 741 740 739 738 738 736 737 740 741 743 744 745 747 749 751 752 752 753 755 755 755 756 758 760 762 764 765 767 768 770 773 774 776 778 780 782 784 786 789
800 799 797 796 796 797 799 800 801 803 803 801 795 788 789 792 792 793 793 793 791 790 794 796 794 795 795 795 795 794 794 794 795 792 789 785 783 781 780 778 776 773 770 767 763 760 756 754 751 748 746 745 744 742 741 739 739 738 738 738 737 737 737 735 736 737 738 739 741 742 743 746 748 749 750 751 752 753 754 754 755 757 760 762 763 765 766 768 772 774 775 777 779 781 783 785 788
804 803 798 793 792 797 798 798 801 801 804 804 798 793 791 790 791 793 794 792 790 792 798 800 799 799 800 800 799 797 797 797 796 792 789 787 785 783 781 779 777 774 771 768 765 761 758 754 751 748 746 744 743 741 739 738 737 736 735 735 735 736 735 734 734 734 735 737 737 738 740 742 745 747 748 749 750 751 751 752 753 755 756 758 760 762 764 767 770 772 774 775 777 779 782 785 788
806 805 801 789 786 795 797 796 798 799 804 806 802 798 791 789 792 793 793 793 790 794 801 804 804 804 804 804 802 801 800 799 797 795 793 791 788 785 783 781 778 775 772 770 766 762 758 754 751 748 745 743 741 740 739 736 735 734 733 732 732 733 733 733 733 732 733 734 735 735 737 739 741 744 745 746 748 749 749 750 751 752 753 756 758 760 762 765 767 770 772 774 776 778 781 784 787
806 806 805 793 786 789 793 795 795 797 805 806 804 804 793 786 790 793 794 793 791 797 805 809 809 808 808 807 805 803 802 801 799 799 797 794 790 788 785 782 780 777 774 771 766 762 758 755 751 748 745 742 740 739 737 736 734 733 731 730 730 730 729 730 731 731 731 731 732 733 734 735 737 740 741 743 745 747 747 748 749 749 751 754 755 757 760 762 765 768 771 774 775 777 779 782 784
802 804 805 800 797 788 785 793 793 797 806 803 802 807 795 786 790 792 792 791 793 802 810 812 812 811 809 808 807 805 804 804 802 800 798 795 793 789 786 784 781 778 775 771 767 763 759 756 752 748 745 742 740 737 735 735 733 731 730 728 728 728 727 727 728 728 729 729 729 731 731 732 733 735 737 739 742 744 745 746 747 747 749 753 753 755 757 760 763 765 769 771 773 776 777 779 782
800 803 801 800 805 794 784 792 796 799 805 801 802 809 799 789 789 789 790 792 797 807 813 814 814 812 810 809 807 806 805 805 803 801 799 796 794 791 788 785 782 780 776 772 768 764 760 757 753 750 746 742 739 736 734 732 731 729 728 726 725 725 724 724 724 725 726 727 726 727 728 729 729 730 733 735 738 740 742 743 745 745 747 750 750 752 755 757 760 763 766 767 768 773 777 778 780
798 803 805 805 808 802 792 795 800 801 803 802 804 810 803 792 790 788 789 796 802 808 813 815 814 812 811 810 808 807 806 805 803 801 800 799 796 794 790 787 784 781 778 774 769 765 761 757 754 751 747 743 740 736 733 730 729 727 725 723 722 722 721 721 722 722 723 724 723 723 724 725 724 726 728 731 734 736 738 741 742 743 744 745 746 749 753 755 758 760 763 764 764 768 774 777 779
801 805 809 809 810 809 801 797 800 799 803 806 804 807 803 793 790 787 790 799 804 808 813 814 813 813 812 811 809 807 806 805 804 803 802 801 798 796 792 789 785 782 778 775 771 767 763 759 755 751 748 744 741 736 733 729 727 725 722 721 719 718 717 718 719 719 720 721 720 720 721 721 720 721 723 726 731 734 735 737 739 741 742 743 744 746 751 754 756 758 760 763 764 766 769 774 778
814 814 815 812 811 811 804 798 797 799 803 803 802 804 801 794 788 788 796 802 804 809 813 814 814 814 813 812 810 808 808 807 807 806 804 802 799 796 793 789 786 782 778 774 771 768 764 760 756 752 748 744 741 737 733 729 725 723 720 718 716 715 714 714 715 715 716 717 717 717 716 716 717 718 719 721 727 731 732 733 735 738 740 742 743 746 749 751 755 757 759 762 764 766 766 769 775
820 820 821 819 814 809 803 797 796 801 801 798 801 804 800 794 788 793 804 805 805 810 812 814 815 815 815 814 812 810 810 809 808 807 804 802 799 796 792 789 786 783 779 775 771 768 764 760 756 752 748 744 740 737 733 729 725 721 718 716 714 712 710 710 711 711 712 712 712 713 712 712 713 715 715 717 722 726 728 729 731 734 738 739 741 743 744 746 750 754 757 760 763 766 766 767 772
822 821 821 817 812 807 801 797 796 800 801 796 796 799 798 792 788 798 806 804 807 811 812 815 816 816 817 815 814 813 811 811 809 807 805 802 798 796 792 788 785 782 778 775 771 768 765 761 757 753 749 745 741 738 734 731 727 722 718 715 712 710 708 707 706 706 706 707 707 708 708 709 709 711 712 713 717 721 724 725 727 730 734 736 737 738 739 741 745 751 756 760 761 763 766 767 769
822 821 818 812 810 806 800 798 798 799 802 797 790 795 797 789 790 801 805 804 809 812 814 816 816 817 817 816 816 814 812 811 808 805 803 800 797 794 791 788 785 781 778 775 771 768 765 762 759 754 750 747 743 740 736 732 729 725 719 714 711 708 706 705 703 702 701 702 702 702 703 705 706 708 709 710 712 716 720 721 723 726 729 732 735 737 738 741 743 747 752 757 760 761 763 765 767
820 818 816 812 809 806 800 798 799 801 803 796 790 797 797 788 795 806 804 806 812 813 814 816 815 816 816 816 815 813 811 809 805 802 800 798 796 793 791 788 785 782 779 776 773 769 765 762 759 755 751 748 744 740 736 732 729 726 721 714 710 706 704 702 701 699 697 697 697 698 699 700 702 704 706 707 709 711 715 718 719 721 725 728 731 734 736 739 742 744 746 750 756 760 762 763 764
818 818 817 814 813 814 810 803 802 802 801 798 796 799 794 789 799 808 808 809 812 813 813 812 813 814 815 816 814 812 809 806 802 800 798 796 795 793 791 788 785 782 779 776 772 769 766 763 759 755 751 747 744 740 736 732 728 724 720 714 708 705 701 700 698 696 695 693 693 693 694 695 697 698 700 703 705 707 709 713 715 718 721 723 727 730 732 735 737 740 743 746 750 755 758 761 763
816 823 822 819 820 822 818 810 805 799 799 804 802 796 790 788 796 804 808 808 809 809 809 809 810 812 814 813 812 810 807 805 802 800 798 796 794 791 789 787 785 782 779 775 771 768 765 762 759 754 750 746 742 739 735 731 727 723 719 713 706 702 699 698 697 694 692 691 689 688 689 691 692 693 695 699 702 703 705 708 712 714 717 720 723 725 729 732 734 737 740 743 745 748 752 757 761
815 824 828 827 825 823 819 814 810 804 801 805 806 806 796 785 789 799 804 805 806 808 807 808 810 811 812 810 809 808 805 804 802 800 799 796 794 791 788 786 784 780 777 773 769 767 764 761 758 754 749 744 740 737 734 730 727 724 721 715 708 703 699 697 696 694 690 688 685 684 685 686 688 689 691 694 697 700 701 702 707 711 713 717 720 722 725 729 733 735 737 740 743 744 749 754 758
818 825 831 831 826 823 819 816 817 813 806 802 808 817 804 786 788 797 801 804 805 806 807 808 810 810 810 809 807 804 802 800 799 798 797 795 792 789 787 785 783 780 775 772 768 765 762 759 756 753 748 743 738 735 732 729 726 724 721 717 712 706 700 696 695 693 689 686 683 682 682 682 683 684 686 688 691 695 697 698 702 706 708 712 716 720 723 726 729 732 734 737 741 743 747 751 754
821 827 832 830 825 822 819 818 819 813 808 805 806 813 808 793 789 792 796 800 801 804 806 806 808 809 809 807 805 802 800 799 798 797 795 793 791 788 785 783 780 778 773 770 767 763 760 757 753 750 746 742 737 733 731 728 726 723 720 717 712 707 702 697 693 691 688 685 682 680 679 678 678 679 682 684 686 690 693 694 697 700 704 708 711 715 719 723 727 730 732 735 739 741 744 747 750
822 829 833 829 824 823 821 819 814 809 814 814 804 806 809 796 785 786 793 799 802 805 807 807 808 809 808 805 803 801 800 800 799 797 794 792 790 787 784 781 777 775 771 768 765 761 758 754 751 747 744 740 735 731 729 727 725 722 718 714 710 706 702 697 693 689 686 683 680 677 676 675 674 675 677 679 681 685 687 690 693 695 698 703 707 710 714 720 724 727 728 731 735 739 742 745 748
827 831 830 825 822 820 818 817 813 815 822 817 805 804 809 799 785 786 794 803 809 809 807 809 809 809 807 804 802 801 800 800 798 796 793 790 788 785 782 778 775 771 768 765 762 759 756 751 748 744 741 737 733 729 726 724 722 719 715 711 706 703 700 697 693 689 685 682 678 675 673 672 672 672 673 676 678 680 682 686 689 692 695 698 702 706 710 714 720 723 724 726 731 735 739 743 745
830 829 824 820 818 815 814 813 816 824 819 808 806 808 814 811 794 791 801 807 812 810 807 808 808 806 805 803 802 802 801 799 797 794 791 789 785 782 778 775 771 768 765 762 759 756 752 748 744 740 737 734 730 726 723 720 718 715 712 708 704 700 699 697 694 690 685 682 678 674 672 670 669 669 670 672 674 676 678 681 685 689 692 694 697 701 704 708 714 719 722 724 729 733 736 740 744
828 824 822 822 820 817 816 815 821 828 816 805 808 810 817 815 798 797 807 808 808 808 808 808 807 806 804 803 802 801 801 798 795 792 788 785 782 778 775 772 768 765 761 758 755 752 748 745 740 736 733 729 726 723 719 716 713 711 708 705 701 698 696 696 694 691 687 683 678 674 671 668 665 664 666 667 669 671 674 676 680 684 688 689 692 696 699 702 709 715 719 722 726 730 733 737 741
825 823 827 832 826 822 820 815 815 814 805 803 808 812 817 805 790 796 805 805 806 806 806 808 809 808 806 805 804 801 800 797 793 790 787 784 779 774 771 768 765 761 758 755 751 748 744 740 736 732 729 725 722 718 715 712 708 706 704 701 698 695 693 692 691 689 686 683 678 674 671 667 662 660 660 661 663 666 669 672 675 678 682 684 688 692 695 698 703 709 714 718 722 726 730 734 736
826 827 833 835 833 836 831 817 811 807 802 803 808 821 822 799 787 797 802 803 805 804 806 810 810 810 808 806 804 801 799 796 792 789 786 782 778 773 770 766 763 759 755 751 748 744 740 735 731 728 724 721 718 714 710 707 704 701 699 697 695 692 689 689 687 685 683 680 677 673 669 667 663 659 656 655 658 661 664 667 670 673 676 680 683 688 692 694 698 704 709 714 718 722 726 730 733
830 831 836 836 834 840 835 823 821 821 817 813 816 825 816 793 789 798 801 803 803 804 808 810 810 809 808 806 803 801 798 794 790 787 784 782 777 772 767 763 760 756 752 748 744 741 736 731 726 722 719 716 713 710 706 702 699 696 694 692 691 689 687 685 684 682 680 677 673 670 666 663 662 659 655 652 652 655 659 663 667 669 671 675 678 683 688 691 694 699 704 709 713 718 722 726 730
837 839 839 837 832 831 832 834 839 845 842 826 817 812 795 786 794 799 801 803 802 805 807 808 809 808 806 805 802 799 796 791 788 784 781 779 775 770 766 760 755 750 747 743 739 737 733 727 721 717 714 711 708 705 701 697 695 692 689 687 686 686 684 682 680 678 676 673 670 667 663 660 659 657 655 651 647 648 652 657 662 664 667 671 674 678 683 688 692 695 699 703 708 713 717 721 726
836 841 837 836 838 836 839 844 846 855 854 824 803 799 787 786 798 800 801 802 801 806 808 807 809 806 804 802 798 796 793 788 785 782 778 774 770 767 763 757 752 747 743 739 735 732 728 723 717 712 708 706 702 699 696 692 690 687 684 682 681 680 679 678 676 674 672 669 666 664 660 657 656 654 652 649 643 642 646 650 654 659 662 666 670 673 678 682 687 691 694 698 702 707 712 716 721
832 834 833 838 845 845 851 862 856 849 843 816 798 803 797 790 797 800 801 803 804 805 806 806 806 804 801 798 796 794 790 786 783 779 775 771 765 762 757 752 748 745 741 736 732 728 723 718 713 708 703 700 697 694 691 688 685 682 679 676 675 674 673 672 671 669 668 665 663 660 657 655 653 651 649 647 641 637 639 644 647 652 657 661 664 668 672 677 682 686 690 693 697 702 707 712 716
836 834 834 838 845 845 852 869 866 852 846 827 805 803 799 790 795 804 804 804 806 806 806 806 804 802 800 796 794 792 789 785 780 775 773 769 763 758 753 749 744 740 737 732 728 723 718 714 710 705 701 697 693 690 687 684 681 678 674 671 669 668 667 667 666 664 663 661 659 657 654 652 650 649 647 645 639 633 633 638 641 645 650 654 658 662 666 671 676 681 685 688 693 698 702 707 711
843 841 839 840 843 845 848 857 860 856 853 840 820 809 799 792 798 808 807 805 808 809 807 806 804 802 800 796 794 791 787 784 778 773 770 766 761 754 749 747 743 737 732 727 723 719 715 712 708 704 701 696 691 687 683 680 677 673 670 666 664 663 661 661 660 660 658 656 655 653 651 649 647 646 645 642 638 630 627 631 635 639 643 647 652 657 661 665 670 676 680 683 688 693 698 702 707
841 839 840 844 845 847 853 855 855 858 854 846 839 821 799 795 803 805 805 807 810 811 809 807 805 802 800 797 794 790 786 782 776 771 768 763 758 752 746 743 740 735 729 725 722 718 713 709 706 702 698 695 690 686 682 678 673 670 666 662 659 658 656 655 654 654 653 651 649 647 646 645 643 642 641 639 636 629 624 624 629 633 637 641 645 650 655 660 665 670 675 679 683 688 693 697 702
835 831 833 840 845 851 858 855 853 860 858 848 847 831 803 798 804 802 805 809 809 810 810 807 804 801 798 795 792 788 784 780 775 770 765 760 755 750 745 740 736 732 728 724 721 717 711 707 703 699 695 692 689 685 681 677 671 666 662 659 656 653 651 650 649 648 647 645 643 641 641 641 639 638 637 635 633 628 622 619 623 627 630 635 639 643 650 655 659 664 669 674 678 682 688 693 697